FW4151 Weather Reports


time (UTC)temp
C
wind
direction
speed
KPH
gust
KPH
rain 1hr
cm
rain 24hr
cm
rain mn
cm
humidity
%
barometer
mb
20260510031509 8 0.0 0.0 0.00 0.58 0.58 95 1008.6
20260510030105 8 0.0 0.0 0.00 0.58 0.58 95 1008.3
20260510024505 8 0.0 0.0 0.00 0.58 0.58 95 1008.2
20260510023006 8 0.0 0.0 0.00 0.58 0.58 94 1008.2
20260510021510 8 0.0 0.0 0.00 0.58 0.58 94 1008.1
20260510020002 8 0.0 0.0 0.00 0.58 0.58 94 1008.1
20260510014503 8 0.0 0.0 0.00 0.58 0.58 93 1007.9
20260510013001 8 0.0 0.0 0.00 0.58 0.58 92 1007.8
20260510011600 8 0.0 0.0 0.00 0.58 0.58 92 1007.9
20260510010106 9 0.0 0.0 0.00 0.58 0.58 91 1007.8
20260510004602 9 0.0 0.0 0.00 0.58 0.58 91 1007.5
20260510003059 10 0.0 0.0 0.00 0.58 0.58 91 1007.1
20260510001558 10 0.0 0.0 0.00 0.58 0.58 90 1007.2
20260509234557 11 0.0 0.0 0.00 0.58 0.58 91 1007.1
20260509233058 11 0.0 0.0 0.00 0.58 0.58 91 1006.9
20260509231556 11 0.0 0.0 0.00 0.58 0.58 92 1006.6
20260509230056 11 0.0 0.0 0.00 0.58 0.58 92 1006.6
20260509224552 11 0.0 0.0 0.00 0.58 0.58 92 1006.9
20260509223051 11 0.0 0.0 0.00 0.58 0.58 92 1006.8
20260509221548 11 0.0 0.0 0.00 0.58 0.58 92 1006.7
20260509220047 11 0.0 0.0 0.00 0.58 0.58 93 1006.8
20260509214559 11 0.0 0.0 0.00 0.58 0.58 92 1006.9
20260509213040 11 0.0 0.0 0.00 0.58 0.58 94 1006.9
20260509211535 10 0.0 0.0 0.00 0.58 0.58 93 1007.1
20260509210035 10 0.0 0.0 0.00 0.58 0.58 94 1007.3
20260509204536 10 0.0 0.0 0.03 0.58 0.58 94 1007.3
20260509203030 10 0.0 0.0 0.05 0.58 0.58 95 1007.5
20260509201526 10 0.0 0.0 0.05 0.58 0.58 95 1007.6
20260509200024 10 0.0 0.0 0.08 0.58 0.58 95 1007.7
20260509194524 10 0.0 0.0 0.08 0.56 0.56 95 1007.8
20260509193027 10 0.0 0.0 0.15 0.53 0.53 95 1008.0
20260509191527 10 0.0 0.0 0.20 0.53 0.53 94 1008.0
20260509190028 10 0.0 0.0 0.23 0.51 0.51 95 1008.1
20260509184530 9 0.0 0.0 0.25 0.48 0.48 94 1008.2
20260509183011 9 0.0 0.0 0.18 0.38 0.38 94 1008.3
20260509181507 9 0.0 0.0 0.13 0.30 0.30 94 1008.2
20260509180005 9 0.0 0.0 0.10 0.25 0.25 94 1008.2
20260509174505 9 0.0 0.0 0.08 0.23 0.23 95 1008.2
20260509173004 9 0.0 0.0 0.05 0.20 0.20 95 1008.1
20260509171600 9 0.0 0.0 0.03 0.18 0.18 94 1008.1
20260509170101 9 0.0 0.0 0.03 0.15 0.15 94 1008.1
20260509164532 9 0.0 0.0 0.03 0.15 0.15 94 1008.1
20260509163039 9 0.0 0.0 0.03 0.15 0.15 94 1008.2
20260509161531 9 0.0 0.0 0.03 0.15 0.15 95 1008.4
20260509160029 9 0.0 0.0 0.00 0.13 0.13 95 1008.5
20260509154527 9 0.0 0.0 0.00 0.13 0.13 95 1008.6
20260509153034 8 0.0 0.0 0.00 0.13 0.13 96 1008.7
20260509151520 -17 0.0 0.0 0.00 0.13 0.13 1009.1
20260509150017 -17 0.0 0.0 0.00 0.13 0.13 1009.2
20260509144511 -17 0.0 0.0 0.00 0.13 0.13 1009.4
20260509143008 -17 0.0 0.0 0.00 0.13 0.13 1009.5
20260509141503 -17 0.0 0.0 0.00 0.13 0.13 1009.4
20260509134554 -17 0.0 0.0 0.00 0.13 0.13 1009.3
20260509133050 -17 0.0 0.0 0.00 0.13 0.13 1009.3
20260509131545 -17 0.0 0.0 0.00 0.13 0.13 1009.6
20260509130042 -17 0.0 0.0 0.00 0.13 0.13 1009.6
20260509124544 -17 0.0 0.0 0.00 0.13 0.13 1009.6
20260509123035 -17 0.0 0.0 0.00 0.13 0.13 1009.8
20260509121534 -17 0.0 0.0 0.00 0.13 0.13 1009.7
20260509120034 -17 0.0 0.0 0.00 0.13 0.13 1009.9
20260509114532 -17 0.0 0.0 0.00 0.13 0.13 1010.0
20260509113036 -17 0.0 0.0 0.00 0.13 0.13 1009.8
20260509111533 -17 0.0 0.0 0.00 0.13 0.13 1009.9
20260509110032 -17 0.0 0.0 0.00 0.13 0.13 1009.8
20260509104530 -17 0.0 0.0 0.00 0.13 0.13 1009.7
20260509103030 -17 0.0 0.0 0.00 0.13 0.13 1009.8
20260509101545 -17 0.0 0.0 0.00 0.13 0.13 1009.8
20260509100032 -17 0.0 0.0 0.00 0.13 0.13 1009.6
20260509094528 -17 0.0 0.0 0.00 0.13 0.13 1009.8
20260509093026 -17 0.0 0.0 0.00 0.13 0.13 1009.7
20260509091523 7 0.0 0.0 0.03 0.13 0.13 93 1009.7
20260509090033 7 0.0 0.0 0.03 0.13 0.13 93 1009.9
20260509084520 7 0.0 0.0 0.03 0.13 0.13 93 1009.9
20260509083031 7 0.0 0.0 0.03 0.13 0.13 93 1010.0
20260509081518 7 0.0 0.0 0.00 0.10 0.10 93 1010.2
20260509080020 7 0.0 0.0 0.03 0.10 0.10 93 1010.5
20260509074516 7 0.0 0.0 0.03 0.10 0.10 93 1010.5
20260509073023 7 0.0 0.0 0.03 0.10 0.10 92 1010.5
20260509071515 7 0.0 0.0 0.05 0.10 0.10 92 1010.5
20260509070013 7 0.0 0.0 0.05 0.08 0.08 92 1010.5
20260509064512 7 0.0 0.0 0.08 0.08 0.08 91 1010.4
20260509063019 7 0.0 0.0 0.08 0.08 0.08 91 1010.8
20260509061508 7 0.0 0.0 0.05 0.05 0.05 91 1010.9
20260509060007 7 0.0 0.0 0.03 0.03 0.03 91 1011.0
20260509054505 7 0.0 0.0 0.00 0.00 0.00 90 1011.2
20260509053003 7 0.0 0.0 0.00 0.00 0.00 89 1011.2
20260509051502 6 0.0 0.0 0.00 0.00 0.00 88 1011.1
20260509050100 6 0.0 0.0 0.00 0.00 0.00 87 1011.0
20260509044653 6 0.0 0.0 0.00 0.00 0.00 86 1011.1
20260509043138 6 0.0 0.0 0.00 0.00 0.00 86 1011.2
20260509041554 6 0.0 0.0 0.00 0.00 0.00 85 1011.4
20260509040052 6 0.0 0.0 0.00 0.00 0.00 85 1011.5
20260509034552 6 0.0 0.0 0.00 0.00 0.00 84 1011.5
20260509033051 6 0.0 0.0 0.00 0.00 0.00 84 1011.4